{"data":{"norad_id":36499,"epoch":"2026-05-25T03:42:38.615040Z","epoch_age_seconds":61665,"freshness":"FRESH","line1":"1 36499U 10010A   26145.15461360 -.00000002  00000+0  00000+0 0  9998","line2":"2 36499   0.0164 337.1506 0002500  97.7393 104.6106  1.00272305 46327","mean_motion":1.00272305,"eccentricity":0.00025,"inclination_deg":0.0164,"raan_deg":337.1506,"arg_perigee_deg":97.7393,"mean_anomaly_deg":104.6106,"bstar":0,"rev_number":4632,"period_min":1436.0894566052,"perigee_km":35775.908040397,"apogee_km":35796.990333491,"semimajor_km":42164.586186944,"source":"CELESTRAK","updated_at":"2026-05-25T13:38:13.870871Z"}}